RH
6 6 6 6 5 5 5 5 5 5 5 5 6 6 6 6 6 6 6 6 6 6 6 6 6 6 6 6 5 5 5 4 4 4 5 5 5 6 6 6 7 6 7 7 7 7 7 8 8 9 9 9 10 10 11 11 11 11 10 9 8 7 7 8 10 18 32 45 53 56 51 44 42 37
6 6 6 6 5 5 5 5 5 4 5 5 5 5 6 6 6 6 6 5 5 5 5 5 5 6 6 6 6 5 5 4 4 3 4 4 4 5 5 5 6 6 6 6 7 7 7 8 8 9 9 9 10 10 10 11 11 11 10 8 8 8 7 9 10 12 23 40 53 60 58 50 42 36
6 6 6 6 5 5 4 4 4 4 4 4 5 5 5 5 5 5 6 6 5 5 5 5 5 6 6 6 7 6 5 4 4 4 4 4 4 4 4 5 5 5 5 6 6 6 7 8 8 9 9 9 10 10 11 11 11 11 11 9 8 9 9 9 10 10 14 28 46 57 60 56 46 37
6 6 6 5 5 4 4 4 4 4 4 4 4 5 5 5 5 5 5 6 5 5 5 5 5 5 6 6 7 7 6 5 4 4 4 4 4 4 4 4 4 5 5 5 6 6 7 8 8 9 10 10 10 11 12 12 12 12 11 10 9 10 11 10 9 10 10 18 35 50 60 61 52 41
6 6 6 5 4 4 4 4 4 3 3 4 4 4 4 5 5 5 5 5 5 5 5 5 5 5 6 6 6 7 7 6 4 4 4 4 4 4 4 4 4 4 4 5 6 6 7 7 8 9 10 10 11 12 13 13 14 14 12 10 10 10 11 10 9 10 10 12 23 40 56 64 59 48
6 6 5 4 4 4 4 4 4 3 3 4 4 4 4 4 4 4 5 5 5 5 5 5 5 5 6 6 6 7 7 6 5 4 4 4 4 4 4 4 4 4 5 5 6 7 7 8 9 9 10 11 11 12 14 14 14 14 12 11 10 11 11 10 9 9 10 10 14 28 46 60 62 56
6 5 5 4 4 4 4 4 4 4 4 4 4 4 4 4 4 4 4 5 5 5 5 5 5 5 5 6 6 7 7 7 6 5 5 5 5 5 4 4 4 5 5 5 6 7 8 8 9 10 10 11 12 13 14 14 14 13 12 11 11 12 12 11 10 8 10 10 10 18 35 52 59 57
5 5 4 4 5 4 4 4 3 4 4 4 4 4 4 4 4 4 4 5 5 5 5 5 5 5 5 6 6 7 7 7 6 5 5 5 5 5 5 5 5 5 5 6 6 7 8 9 9 10 11 11 12 13 14 14 15 13 13 13 12 13 13 12 11 9 9 10 10 12 23 42 54 57
5 5 4 4 4 4 4 4 4 4 4 4 4 4 4 4 4 4 4 5 5 5 5 5 5 5 5 6 6 7 7 7 6 6 5 5 5 5 5 5 5 5 6 6 6 7 9 9 10 9 10 11 12 13 14 14 15 14 15 15 14 14 14 13 13 11 9 9 10 10 15 30 46 54
5 5 5 4 4 4 4 4 4 4 4 4 4 4 4 4 4 4 4 5 5 5 5 5 5 5 6 6 6 7 7 7 6 6 6 6 6 5 5 5 5 5 6 6 6 7 8 9 10 10 10 11 11 12 13 14 14 15 16 16 15 15 15 14 14 13 12 10 10 10 10 19 35 49
5 5 5 5 4 4 4 4 4 4 4 4 4 4 4 4 4 4 4 5 5 5 5 5 5 6 6 6 6 7 7 7 7 6 6 6 6 6 6 6 6 6 6 6 6 7 8 9 10 10 10 11 11 12 13 13 14 15 15 16 16 15 15 15 14 14 14 12 11 11 10 13 24 41
5 5 5 5 4 5 4 4 4 4 4 4 4 4 4 4 4 4 4 5 4 5 5 5 5 6 6 6 6 7 7 7 7 6 6 7 6 6 6 6 6 6 6 7 7 6 8 9 9 10 10 10 11 11 12 13 14 14 15 15 14 14 14 14 15 15 15 14 12 12 11 12 15 29
5 5 5 5 5 4 4 4 4 4 4 4 4 4 4 4 4 4 4 5 4 5 5 5 5 5 6 6 6 6 7 7 7 6 6 7 7 6 6 6 6 7 6 7 7 7 7 8 9 9 9 10 10 11 12 13 14 15 16 15 14 13 13 13 14 15 15 15 14 12 11 12 13 19
5 5 5 5 5 4 4 4 4 3 4 3 3 3 3 4 4 4 4 4 4 5 5 5 5 5 6 6 6 6 7 6 7 6 6 7 7 6 6 6 7 7 7 7 7 7 7 8 8 8 9 9 10 11 12 13 14 15 16 16 15 14 14 14 14 15 16 16 15 14 12 12 14 15
5 5 5 5 5 4 4 4 4 3 3 3 3 3 3 3 4 4 5 5 5 5 5 5 5 5 6 6 6 6 6 7 6 6 7 7 7 7 6 7 7 7 7 7 7 7 7 7 8 8 8 9 9 10 11 12 14 15 16 16 16 16 15 16 16 15 17 18 16 15 13 11 13 15
5 5 5 5 5 4 4 4 4 4 3 3 3 3 3 3 4 4 4 5 5 5 5 5 5 5 6 6 6 6 6 7 6 6 7 7 7 7 7 7 7 7 8 8 7 7 7 7 7 8 8 8 8 9 10 11 13 14 16 16 16 17 16 16 18 17 16 18 17 16 15 12 12 14
5 5 5 5 5 4 4 4 4 4 4 4 4 3 4 3 3 4 4 4 5 5 5 5 5 5 6 6 7 7 6 7 7 7 7 7 7 8 8 8 8 7 8 8 7 7 7 6 7 7 7 8 8 9 9 10 11 13 15 16 16 17 17 17 18 19 19 19 18 16 16 13 12 14
5 5 5 5 4 4 3 4 4 4 4 4 4 3 4 4 3 4 4 4 5 5 5 5 5 5 6 6 6 7 7 7 7 7 7 7 8 8 8 8 8 8 8 8 8 7 7 6 6 6 7 8 8 9 9 9 10 11 13 15 15 16 17 18 19 20 21 21 20 18 17 15 13 13
5 5 4 4 4 4 4 4 4 4 4 4 4 4 4 4 4 4 4 4 5 5 5 5 5 5 5 6 6 7 7 7 7 7 7 7 8 8 9 9 8 8 8 8 8 8 7 6 6 6 6 7 7 9 10 9 9 10 11 13 14 15 17 18 19 21 22 22 22 20 18 16 15 13
5 4 4 4 4 3 3 4 4 4 4 4 4 4 4 4 4 4 4 4 4 5 5 5 5 5 5 6 6 6 7 7 7 7 7 7 8 8 9 9 9 9 9 8 8 8 7 6 6 5 6 6 6 8 10 10 9 9 10 11 12 15 16 17 19 21 22 23 22 21 20 18 16 14
5 4 4 4 4 3 4 4 4 4 4 4 4 4 4 4 4 4 4 4 4 5 5 5 5 5 5 6 6 7 7 7 8 8 8 8 8 8 9 10 10 10 10 9 8 8 8 7 6 6 5 5 6 6 8 10 11 9 9 10 11 14 15 17 19 20 22 23 23 23 21 19 18 16
4 4 4 4 4 4 3 4 4 5 4 4 4 4 4 4 4 4 4 4 4 5 5 5 5 5 6 6 6 7 7 7 8 8 8 8 8 8 9 10 11 11 10 10 9 8 8 7 6 6 5 5 5 6 6 8 11 11 10 10 11 13 15 17 19 20 22 23 23 23 23 21 20 19
4 4 4 4 4 4 4 4 5 5 4 4 4 4 4 4 4 4 4 4 4 4 5 5 5 5 6 6 6 7 7 8 8 8 8 8 8 9 9 10 11 11 11 10 9 9 8 8 7 6 6 5 5 5 5 6 8 11 11 10 11 12 14 16 18 20 22 23 24 24 24 24 22 21
4 4 4 4 4 4 4 4 5 5 4 4 4 4 5 4 4 5 5 5 4 4 4 5 5 5 5 6 6 7 7 8 8 8 8 9 9 9 9 10 11 11 11 11 10 10 9 8 7 6 6 6 5 5 6 5 6 8 10 11 11 11 14 16 17 20 21 22 24 25 25 26 25 24
4 4 4 4 3 3 4 5 5 5 4 4 4 5 5 4 5 6 6 5 4 4 4 5 5 5 5 6 6 7 7 8 8 9 9 9 9 9 9 10 10 11 11 11 11 12 11 9 8 7 6 6 6 6 6 6 6 7 8 10 11 10 12 15 16 19 20 22 24 26 26 27 27 26
4 4 3 3 3 4 4 5 5 5 4 4 5 5 5 5 6 6 5 5 5 4 4 5 5 5 5 6 6 7 7 8 8 9 9 9 9 10 10 10 10 10 11 12 12 13 12 11 9 8 6 6 6 6 6 6 6 6 6 8 10 10 10 13 15 17 19 21 23 26 26 27 27 27
3 3 3 4 4 4 4 5 5 5 5 5 5 5 5 6 6 6 6 6 5 5 4 4 5 5 5 6 7 7 7 8 8 9 10 9 9 10 10 10 10 10 10 11 12 13 13 12 10 8 7 6 6 6 6 6 6 6 6 6 8 9 10 12 14 16 18 20 22 25 26 26 27 27
3 4 3 3 4 4 4 5 5 5 5 5 5 5 5 6 6 6 6 6 5 5 5 5 5 5 5 6 6 7 7 8 8 9 10 10 9 11 11 11 10 10 10 11 13 13 13 12 11 9 8 6 6 6 6 6 6 6 6 6 6 8 9 11 13 15 17 19 21 23 25 26 26 27
3 3 3 4 4 4 4 5 5 6 6 6 5 5 6 6 6 6 6 6 6 5 5 5 5 5 5 6 6 7 7 7 8 9 10 10 10 11 12 12 10 9 10 11 12 13 13 12 11 10 9 7 6 6 6 6 7 6 6 6 6 6 8 10 13 15 16 18 19 21 24 25 25 25
3 3 3 4 4 4 4 5 6 6 6 6 6 5 6 6 6 6 6 6 6 6 5 6 6 5 6 6 6 7 7 7 8 9 10 11 12 12 13 12 11 10 10 11 12 13 13 12 11 10 9 8 7 6 6 6 7 7 6 6 6 6 6 8 12 14 15 17 18 20 22 25 25 24
3 3 3 4 4 4 5 5 6 7 7 7 6 5 6 6 6 5 6 5 5 6 6 7 7 6 6 6 6 7 7 7 8 9 11 12 12 13 13 13 12 11 11 11 11 11 12 12 11 10 9 8 7 6 6 6 6 7 7 7 7 7 6 7 10 13 14 15 17 19 20 23 25 25
3 4 4 4 4 5 5 6 7 7 7 6 6 5 5 6 5 5 5 5 6 7 7 7 7 7 6 6 7 7 7 8 9 10 11 12 13 13 13 13 13 12 12 11 11 11 11 11 11 10 9 8 7 6 6 6 6 7 7 7 7 7 7 6 7 10 14 15 15 17 19 21 23 25
4 4 4 4 5 5 5 6 7 7 7 6 6 5 5 5 5 5 5 5 6 7 7 8 8 7 6 7 7 7 7 8 9 11 12 13 14 13 13 14 14 13 13 13 12 11 10 10 10 10 9 8 7 7 6 6 6 7 7 7 7 7 7 7 7 8 11 14 15 16 17 19 21 24
4 4 4 4 5 5 6 7 7 7 6 5 5 5 5 5 5 5 5 5 6 7 8 8 8 7 7 7 7 8 8 9 10 12 13 14 14 14 14 14 14 14 14 13 13 12 11 10 9 9 8 8 7 7 6 6 6 7 6 6 7 7 6 7 7 7 8 11 14 15 16 17 19 21
3 4 4 4 5 6 6 7 7 6 6 5 5 5 5 5 5 5 5 5 6 7 8 8 8 8 8 8 8 8 9 10 11 13 14 15 15 15 15 15 15 15 14 14 14 13 12 11 10 9 8 7 7 7 7 7 6 6 7 6 6 7 6 6 7 7 7 8 10 13 15 16 17 19
3 4 4 4 6 7 7 7 7 6 5 5 5 5 5 5 5 5 5 5 6 7 8 8 8 8 8 8 9 9 10 11 13 15 17 17 17 16 16 16 16 16 15 14 14 14 13 12 10 9 8 7 7 6 6 7 7 7 7 7 6 6 6 6 6 6 7 7 8 10 13 15 16 17
4 4 4 5 6 7 7 7 6 5 5 5 4 5 5 5 5 5 5 6 6 7 8 8 8 8 8 9 10 11 12 13 16 18 19 20 19 18 17 17 17 17 16 15 14 14 13 12 10 9 8 7 7 6 6 7 7 7 7 7 7 7 6 6 6 6 6 7 7 7 9 12 14 16
4 4 5 6 7 7 6 6 5 5 5 4 4 5 4 4 5 5 5 6 7 8 8 8 8 8 9 9 10 12 13 16 19 21 23 23 22 21 20 19 18 17 16 15 14 13 13 12 11 9 8 7 7 7 7 7 7 7 7 7 7 7 7 6 7 7 6 6 7 7 7 8 11 13
5 5 5 6 6 6 5 5 5 4 4 4 4 4 5 4 5 5 6 6 8 9 9 9 9 9 9 10 12 13 15 19 22 25 26 25 25 24 23 22 21 19 17 16 15 14 13 13 11 10 8 8 8 7 7 7 7 6 7 7 7 7 7 7 6 7 6 6 6 6 6 7 8 10
5 5 5 5 5 5 5 5 4 4 4 4 4 4 4 5 5 5 6 7 8 10 10 10 10 10 11 12 13 15 18 22 26 27 28 28 28 27 26 24 23 21 20 18 16 14 14 13 12 10 9 8 8 7 7 7 7 6 7 7 7 7 7 8 7 7 7 7 6 6 6 6 6 7
5 5 5 5 5 4 4 4 4 4 4 4 4 5 5 5 5 5 6 7 9 10 11 11 11 11 13 14 15 18 22 25 28 29 30 30 30 30 29 27 26 24 22 20 18 16 15 13 12 11 9 8 8 8 7 7 7 7 7 7 7 7 7 8 8 8 8 8 7 7 7 6 6 6
5 4 4 4 4 4 4 4 4 4 4 4 5 5 5 5 5 6 7 8 10 11 11 11 12 14 15 16 18 21 24 27 29 30 31 31 32 31 30 29 28 26 25 23 21 19 17 15 13 12 10 9 8 7 7 7 7 8 7 7 7 7 7 8 8 9 9 8 8 8 8 7 7 7
4 4 4 4 4 4 4 4 4 4 5 5 5 5 5 5 6 6 7 8 10 12 12 12 14 16 18 19 21 24 27 29 30 31 31 32 31 31 30 29 28 27 26 25 25 23 21 18 16 14 12 10 8 7 7 8 7 8 8 8 7 7 7 7 8 9 9 9 8 8 8 8 8 8
4 4 4 4 4 4 4 4 4 4 5 5 5 5 6 6 6 7 8 10 11 12 13 14 16 18 20 22 25 28 30 31 32 32 33 33 32 30 29 28 27 27 26 25 26 26 26 23 20 17 14 12 10 8 7 7 8 8 8 8 7 7 7 7 7 8 9 9 9 9 8 8 8 8
4 4 4 3 4 4 4 4 4 4 5 5 5 6 6 7 7 8 10 11 13 13 14 15 18 20 23 26 31 34 34 34 35 35 35 35 33 32 30 29 27 26 26 25 25 25 26 26 25 22 19 15 13 10 8 7 8 8 8 8 8 7 7 7 7 8 8 8 8 8 8 8 8 8
Wind_Speed
83 81 79 77 76 75 74 74 75 75 76 78 79 81 82 83 85 88 89 88 88 86 85 86 86 86 87 90 92 94 97 99 98 97 97 99 101 104 106 106 106 104 101 102 106 108 110 113 116 120 123 126 128 129 132 135 138 141 143 144 146 148 143 137 141 148 152 152 150 150 148 146 143 138
82 80 78 77 76 74 73 72 73 73 73 75 77 79 80 81 83 85 86 86 86 85 83 83 82 83 84 86 89 90 93 95 95 93 93 96 99 101 104 104 103 102 99 101 106 108 109 112 115 119 122 125 127 129 131 135 138 141 141 139 138 138 137 136 140 146 152 155 153 152 150 147 144 139
81 78 77 76 75 74 73 71 71 71 71 72 74 76 78 80 81 82 82 83 85 84 82 81 80 80 81 83 85 87 89 91 91 89 89 92 96 98 101 101 100 100 98 100 105 107 109 112 115 118 122 124 126 128 130 134 138 140 140 137 133 132 135 139 143 145 149 154 156 154 151 148 145 140
79 77 76 75 73 73 72 71 70 69 69 70 71 73 76 78 79 79 79 81 84 83 80 79 78 78 79 80 81 83 85 87 88 86 86 89 92 95 97 98 98 98 97 99 104 107 109 112 115 118 122 124 126 127 130 133 137 140 140 137 134 134 138 142 144 145 147 152 156 156 152 149 147 142
77 76 76 74 72 71 70 69 69 68 67 68 69 71 73 75 76 76 76 78 82 82 78 77 76 76 77 78 79 80 82 84 85 84 84 86 89 92 94 95 95 95 95 98 102 107 109 112 115 118 122 124 126 127 130 133 136 139 140 138 134 135 141 144 145 145 145 149 155 156 154 152 149 144
75 74 75 72 69 70 69 67 67 66 66 66 67 69 71 72 73 73 74 76 79 80 77 75 75 74 75 76 77 78 79 80 81 82 81 83 86 88 91 93 93 93 94 97 101 106 110 112 115 118 122 125 127 128 131 134 137 139 140 138 134 135 141 144 145 146 146 146 151 155 155 154 152 146
74 73 73 69 67 68 67 65 64 63 63 63 64 66 68 70 71 71 72 73 76 78 75 73 73 72 72 74 75 76 77 77 78 79 80 81 84 86 88 90 91 91 93 96 100 105 110 112 115 119 123 126 128 130 132 135 137 138 138 137 134 136 140 143 144 146 147 146 148 152 155 156 154 149
72 71 71 67 64 65 65 63 60 59 60 61 62 64 66 68 69 69 69 71 74 75 73 71 71 70 70 72 73 74 75 75 76 77 78 80 82 84 86 88 90 90 92 95 100 105 110 113 116 119 123 127 129 131 133 136 137 138 137 137 136 137 139 142 143 144 146 146 146 149 153 156 156 151
70 69 68 65 63 63 62 60 57 56 57 59 60 62 63 65 66 66 67 70 71 72 71 69 68 68 69 70 71 73 73 73 74 75 76 78 81 83 85 87 88 90 92 95 99 105 110 113 116 119 123 127 130 132 134 136 137 138 138 138 137 137 138 140 142 141 143 145 146 148 151 155 157 154
68 67 66 64 61 59 59 57 55 54 55 56 59 61 62 63 64 65 66 68 69 70 69 68 66 66 68 69 70 71 72 72 73 74 75 77 80 83 84 86 88 90 92 96 99 103 109 113 117 120 123 127 130 133 135 137 138 139 140 140 139 139 138 140 141 141 141 143 145 147 150 153 156 155
67 66 64 61 59 57 56 56 54 53 54 55 57 59 60 61 63 64 65 66 67 68 68 66 65 65 66 68 68 69 70 72 72 73 74 77 79 82 84 86 88 90 92 95 98 102 107 113 117 120 123 127 130 133 135 137 139 140 141 142 141 140 140 140 141 142 143 144 145 146 148 151 154 155
66 65 61 59 58 55 54 55 54 53 53 53 55 58 59 61 63 63 64 65 66 66 66 65 64 64 65 66 66 67 69 71 72 73 74 76 78 81 84 86 88 90 92 94 98 101 106 112 117 120 123 126 129 132 135 137 139 140 142 143 142 140 139 139 140 143 144 145 146 146 147 148 152 155
65 63 59 56 57 54 52 54 54 52 52 53 53 56 58 60 62 63 63 64 65 65 65 64 64 63 64 65 65 66 69 70 71 72 73 75 78 81 84 85 87 89 91 94 97 100 105 110 116 119 122 125 128 131 134 137 139 141 143 143 142 140 138 137 139 141 144 145 147 147 147 147 148 152
63 61 57 54 55 54 52 53 53 52 52 52 53 55 58 60 62 62 63 64 64 65 65 64 63 63 63 64 65 66 68 70 70 72 72 74 77 80 82 84 85 87 89 92 95 99 102 107 113 117 120 123 126 130 134 137 140 142 144 145 144 141 139 137 138 140 143 146 148 148 148 147 147 149
62 60 56 53 53 53 51 51 52 52 52 52 52 54 57 59 61 62 62 63 64 64 64 63 63 63 62 63 65 65 67 69 70 71 72 73 76 79 81 82 83 85 87 90 93 96 100 104 109 114 118 121 124 128 133 136 140 143 145 146 146 144 141 140 139 140 142 146 149 149 149 148 148 148
61 58 55 52 52 52 50 50 52 52 52 52 52 53 56 58 60 61 62 62 63 63 63 63 63 62 62 63 64 65 66 68 70 71 71 72 75 77 79 80 81 83 85 88 91 94 98 102 107 112 116 119 122 126 131 135 138 142 145 146 147 145 143 142 141 141 142 145 148 149 149 149 149 148
60 57 54 51 52 52 50 49 51 52 51 52 53 53 55 57 59 60 61 62 63 63 63 63 62 62 62 63 64 65 66 68 69 70 71 71 73 76 77 78 81 83 85 87 89 93 97 101 106 111 115 118 121 124 128 132 136 140 144 146 147 147 146 144 143 142 143 145 147 148 149 149 149 149
59 56 53 51 51 51 49 48 50 51 51 52 53 53 54 56 58 59 61 62 63 63 62 62 62 62 62 62 63 64 66 68 69 70 70 71 72 74 76 78 80 82 84 86 88 91 95 99 103 108 114 118 120 123 126 130 133 137 142 145 147 147 147 146 145 145 145 146 147 148 149 149 149 150
58 55 53 51 51 50 48 48 49 51 51 51 52 53 54 55 57 59 60 62 62 62 62 61 62 62 62 62 63 64 66 68 69 70 70 70 71 73 75 77 80 81 83 84 86 89 93 97 101 105 111 116 119 121 124 127 131 135 139 143 145 146 147 147 146 146 146 147 148 148 149 149 149 150
57 55 53 51 51 50 47 47 48 50 51 51 52 53 53 54 56 58 59 61 62 62 61 61 61 61 61 61 63 64 65 68 69 69 70 70 71 72 74 77 78 80 81 82 84 87 90 94 98 102 108 112 116 120 123 126 129 133 136 140 143 145 146 147 147 148 148 148 148 149 149 150 150 151
56 56 53 51 51 49 47 46 48 50 52 52 52 52 52 53 56 57 58 60 61 61 60 60 61 61 60 61 63 64 65 67 68 69 69 70 71 72 73 75 77 78 80 82 84 86 89 92 96 100 104 109 112 117 121 124 127 130 133 136 139 142 145 146 147 148 149 149 149 149 149 150 151 152
55 55 53 50 51 50 47 45 47 50 52 52 51 51 52 53 55 56 57 59 60 60 60 60 60 60 60 61 62 63 65 67 68 68 69 70 70 71 73 75 76 78 80 82 84 85 88 91 94 97 100 104 108 113 118 122 125 128 131 133 135 138 143 146 147 149 149 150 150 149 149 150 152 153
54 54 53 51 50 49 46 45 47 51 52 52 51 50 51 53 54 55 56 59 60 60 60 60 60 60 60 60 61 62 64 66 67 68 69 69 69 71 72 74 76 78 80 82 83 84 86 89 91 94 97 100 104 109 113 117 121 124 127 130 132 135 140 144 147 149 150 150 150 150 150 151 153 154
54 53 53 51 50 48 45 45 47 51 52 51 49 50 52 53 52 54 56 59 59 59 59 60 60 59 59 59 61 62 64 65 67 68 69 68 68 70 71 73 76 78 79 80 81 81 83 85 88 91 94 97 101 105 108 112 116 120 124 127 131 133 138 142 146 149 151 151 151 151 151 152 154 156
54 53 52 51 49 47 45 44 47 51 52 51 49 50 51 51 51 54 57 58 58 58 59 60 59 59 58 59 61 63 64 65 67 68 68 68 68 68 70 72 74 77 78 79 79 79 81 83 85 88 92 95 98 102 105 108 112 116 121 126 130 132 135 140 144 148 151 152 153 153 153 154 155 157
53 52 52 50 48 46 44 44 47 50 51 50 49 49 50 50 52 55 56 56 57 58 58 58 58 58 58 59 61 63 64 64 65 66 67 67 67 67 68 70 73 76 77 77 77 78 80 82 84 87 90 94 97 100 103 105 109 113 118 123 128 130 132 136 141 146 149 152 154 155 155 156 157 158
53 51 51 50 47 46 44 44 47 49 50 49 49 48 49 51 53 55 55 56 57 57 57 57 58 58 58 59 61 62 63 63 64 65 66 66 66 65 66 69 72 74 74 74 75 77 79 81 83 86 89 92 95 98 100 103 106 109 113 119 123 127 129 132 137 142 147 151 154 156 157 158 159 159
52 51 50 48 47 45 43 44 46 48 49 49 48 47 49 52 53 54 56 57 56 56 55 56 57 58 58 59 60 61 62 62 63 64 65 65 64 63 65 68 71 71 71 72 74 76 77 79 81 84 87 90 93 95 98 100 103 105 108 112 117 121 126 129 133 139 145 149 153 156 158 160 160 160
51 50 49 47 45 44 43 44 46 48 49 49 48 48 50 52 54 55 56 56 56 54 54 55 56 58 58 58 60 61 61 61 61 62 63 63 62 62 64 67 69 69 69 70 72 74 75 77 79 81 84 88 91 93 96 98 100 102 105 107 110 114 120 126 131 136 142 147 151 155 158 161 161 161
50 50 48 45 43 43 42 44 46 47 48 49 48 48 50 53 55 55 56 56 55 53 52 54 56 57 58 58 59 60 60 60 60 61 61 61 61 61 63 65 66 66 67 68 70 71 73 74 77 79 82 85 89 91 93 95 98 100 102 104 106 109 114 121 128 134 139 144 149 153 157 160 162 162
48 47 45 42 41 41 42 43 46 47 48 49 48 48 50 53 55 55 56 55 53 51 52 54 56 57 58 58 58 59 59 58 59 60 60 59 59 60 61 63 63 64 65 67 68 70 71 72 74 77 80 83 86 89 91 93 95 98 100 101 103 106 110 116 123 130 136 140 146 151 155 159 162 163
44 43 42 40 40 41 42 44 46 48 49 50 50 49 51 54 56 55 55 53 51 51 53 55 56 57 57 57 57 58 58 57 58 58 58 58 58 58 59 60 61 62 63 65 66 68 69 70 72 75 78 81 84 87 89 91 93 96 98 100 102 105 108 111 117 125 131 136 141 147 153 157 160 163
42 41 40 40 41 42 43 45 47 49 50 51 50 50 52 55 56 55 54 53 52 52 53 55 56 57 56 56 56 57 56 56 57 57 57 56 56 57 57 58 59 60 61 62 63 65 67 68 70 72 75 78 81 84 86 89 91 94 96 99 101 103 105 108 113 119 126 132 137 142 149 154 158 162
42 39 39 40 41 42 44 46 48 50 51 52 51 51 53 55 56 55 54 53 52 52 53 54 56 56 56 55 56 56 55 56 56 56 56 55 55 55 55 56 57 58 59 60 61 63 64 66 67 69 72 75 78 81 83 86 88 91 93 96 99 101 103 106 109 114 121 127 133 138 144 150 156 160
42 39 38 40 42 43 45 47 49 50 52 52 51 51 53 56 56 54 53 53 52 52 53 54 55 56 55 55 55 55 55 55 55 55 54 54 54 53 53 54 55 56 57 57 58 60 62 63 65 66 69 72 75 77 80 82 85 87 90 92 95 98 101 103 107 111 116 122 129 134 139 145 151 157
42 38 37 39 42 44 45 47 49 51 53 52 51 51 53 55 55 53 52 52 52 52 53 54 55 55 55 55 54 54 54 54 54 53 52 52 52 52 52 52 53 53 54 55 56 58 59 61 63 64 66 68 70 73 76 78 81 84 86 89 91 94 97 100 103 107 111 116 123 129 135 139 145 152
41 37 36 39 43 44 46 48 49 51 53 51 49 50 52 54 53 52 51 50 50 51 52 53 54 55 54 54 53 53 53 53 52 51 51 50 50 50 50 50 51 51 52 53 54 56 57 59 60 62 64 65 67 68 71 75 78 80 83 85 88 91 94 97 100 103 107 111 116 123 130 135 140 146
39 37 37 40 43 45 46 48 49 51 52 49 48 49 51 52 51 49 48 48 49 50 51 53 54 54 54 53 53 53 53 52 50 49 49 48 48 48 48 48 49 50 50 51 53 54 55 57 58 60 61 62 64 66 69 72 75 77 80 83 86 89 92 95 98 100 104 108 111 116 122 129 135 141
38 37 38 41 44 45 46 48 49 50 50 48 48 49 50 50 49 49 48 49 49 50 51 52 53 53 53 53 52 52 52 51 49 48 47 47 46 46 46 46 47 48 48 49 50 51 52 54 56 58 59 61 62 65 68 71 72 74 76 79 82 86 89 92 95 98 101 104 108 111 116 121 128 135
37 38 39 42 44 45 46 47 48 49 48 47 47 48 48 49 49 49 49 49 49 50 51 52 52 53 53 52 52 52 51 49 48 47 46 46 45 45 44 45 45 46 47 47 48 49 50 52 53 56 58 60 61 64 66 68 69 70 72 75 78 81 85 89 92 95 98 101 104 107 111 115 120 127
38 39 40 42 44 45 46 47 47 47 46 46 46 47 47 48 49 48 48 49 49 50 50 51 52 52 52 52 52 51 50 49 48 47 46 45 44 44 43 43 43 44 45 46 47 48 49 50 51 53 56 58 60 62 64 65 66 67 70 72 75 78 82 85 89 92 96 99 101 104 108 111 115 120
37 39 40 42 43 44 45 45 45 44 44 44 44 45 47 48 48 48 48 49 49 49 50 51 52 52 52 52 52 51 50 49 47 46 45 44 44 43 42 42 43 43 44 44 45 46 47 48 49 51 53 56 59 60 61 62 63 65 68 70 73 75 78 81 84 88 92 96 99 102 105 108 112 116
37 38 40 41 41 42 43 43 43 42 42 42 43 45 46 46 47 48 49 49 49 49 50 51 51 51 51 51 51 50 49 48 46 45 44 44 43 42 42 42 42 43 43 43 44 44 46 47 48 49 51 53 56 58 59 60 61 63 66 69 71 73 75 77 79 82 86 90 94 98 101 105 109 113
36 37 38 39 39 40 41 41 41 41 41 42 44 45 45 45 46 48 48 48 48 49 50 51 51 51 50 50 49 49 47 46 45 44 43 42 42 41 41 41 41 42 42 42 43 43 44 45 47 48 49 50 52 54 56 57 59 61 64 66 69 70 71 73 75 77 80 84 88 92 96 100 103 107
34 35 36 36 37 38 39 39 39 40 41 42 43 44 45 46 47 47 47 48 49 50 50 51 50 50 50 49 48 47 46 45 43 42 42 41 40 40 40 40 40 41 41 41 41 42 43 45 46 46 47 48 49 51 53 55 56 58 60 64 66 67 68 69 71 73 75 78 82 86 89 93 97 100
Wind_Direction
281 280 278 275 273 270 267 265 263 261 259 258 256 255 254 254 253 253 253 253 252 250 249 247 246 246 245 245 245 244 245 244 241 239 238 237 237 237 236 236 235 234 231 229 229 227 226 225 224 224 224 224 223 223 223 225 226 227 227 227 226 226 225 223 222 221 221 221 222 223 223 223 223 222
280 279 278 276 274 271 269 266 264 261 259 257 256 255 254 253 252 252 252 252 252 250 249 247 246 245 244 244 244 243 243 243 241 239 237 236 236 236 236 235 234 233 230 228 228 226 224 224 223 223 223 223 223 222 222 223 224 226 228 227 226 226 225 222 221 221 221 220 221 223 223 223 223 222
280 279 278 276 275 273 271 268 265 262 259 257 255 254 253 252 251 251 251 251 251 250 248 247 246 244 243 243 243 242 242 242 241 238 236 235 235 235 235 234 233 231 228 227 227 226 224 222 222 222 222 222 222 221 221 222 223 225 227 227 225 224 223 222 221 221 220 220 221 222 223 223 223 222
279 279 277 276 275 273 271 269 266 263 260 257 255 253 252 251 250 250 250 250 250 249 248 247 245 244 243 242 242 241 241 240 240 237 235 234 234 234 234 233 231 229 227 225 225 225 223 221 221 220 221 221 221 220 220 220 222 223 225 226 224 222 221 221 220 220 220 220 220 221 222 223 223 222
279 278 277 276 275 273 271 269 266 263 259 256 254 253 251 250 250 249 248 248 249 249 247 246 244 243 242 242 241 240 240 239 238 236 234 233 232 232 233 232 230 228 225 223 223 223 222 220 219 219 219 220 220 219 219 219 220 222 224 225 223 221 221 221 220 219 219 219 220 220 221 222 223 222
278 278 277 276 275 272 270 267 265 262 259 256 253 252 251 250 249 248 247 247 247 248 246 245 244 242 241 241 240 239 239 238 237 235 233 232 231 231 231 231 229 226 223 221 220 221 220 219 218 218 218 219 219 218 218 218 219 221 223 224 222 221 221 222 220 219 218 218 219 220 220 222 222 221
278 277 276 275 273 271 269 266 263 260 258 255 252 251 250 249 248 247 246 246 246 247 246 244 243 241 240 240 239 238 238 237 235 233 231 231 230 230 229 229 228 225 222 219 218 219 220 218 217 217 217 218 218 217 217 218 219 221 222 223 222 221 221 222 222 220 218 217 218 219 220 221 222 221
277 276 275 274 272 270 268 265 261 258 256 254 251 249 248 248 247 246 245 245 245 245 245 243 242 241 239 238 238 238 237 236 234 232 230 229 229 229 228 227 226 224 221 218 216 217 218 218 217 216 216 217 217 217 217 218 219 220 222 222 222 221 220 221 222 221 219 218 217 218 219 220 221 220
276 275 274 273 271 268 266 264 260 257 254 252 250 248 247 247 246 245 244 244 244 244 244 242 241 240 238 237 236 236 236 234 233 231 229 228 228 227 227 226 225 223 221 218 215 215 217 218 217 216 216 217 217 217 217 218 218 219 220 221 221 221 220 220 221 221 220 219 217 217 218 219 221 220
275 274 273 272 269 267 265 263 260 256 252 250 249 247 246 245 245 244 243 242 243 243 243 241 239 238 237 236 235 235 234 233 231 230 228 227 226 226 225 225 224 222 220 219 216 214 216 218 217 217 217 217 217 217 217 217 218 219 219 220 221 221 220 220 220 220 220 219 218 217 217 218 220 220
273 272 272 270 267 265 264 262 260 256 253 249 248 247 245 244 244 243 242 242 241 241 241 240 238 237 236 236 234 233 233 232 231 229 227 226 225 225 224 224 223 222 220 219 217 215 215 217 218 217 217 217 217 217 217 217 218 218 219 219 220 220 220 219 219 219 219 219 218 218 218 218 219 219
272 271 270 269 266 265 263 262 260 257 254 250 248 247 245 243 242 242 241 241 240 240 240 239 237 235 235 234 233 232 231 231 230 228 226 225 224 224 223 223 223 222 220 219 218 216 215 217 218 218 218 218 217 217 218 218 218 218 219 220 220 220 220 219 218 218 219 219 218 217 217 218 218 219
270 270 268 267 265 264 263 262 261 258 255 252 249 247 244 242 241 240 240 240 239 239 238 237 236 235 233 233 232 231 230 230 229 227 225 224 224 224 223 222 222 222 220 219 219 217 215 216 218 219 218 218 218 218 218 218 218 218 219 220 221 221 220 220 218 218 218 219 219 218 216 217 218 218
269 268 267 265 264 264 263 262 261 259 255 252 249 246 244 242 240 239 239 239 238 238 237 236 235 234 232 232 231 230 229 229 228 227 225 224 223 224 223 222 222 221 221 220 219 218 217 216 218 219 219 218 218 218 218 218 218 218 219 220 221 221 221 220 219 218 217 218 219 218 217 216 216 218
267 267 265 264 264 264 263 262 260 258 255 252 249 246 243 241 239 238 237 237 237 237 236 235 234 232 231 231 230 229 228 229 228 227 225 224 223 224 223 222 221 221 221 220 219 219 218 216 217 219 220 219 218 218 218 218 218 218 218 219 220 220 220 220 220 219 218 217 218 218 217 216 215 217
266 266 264 263 263 263 262 261 259 257 254 251 248 245 242 240 238 237 236 236 236 235 235 234 233 231 230 229 229 228 227 228 228 227 225 224 223 224 223 222 222 221 220 220 219 219 219 217 216 218 220 220 219 218 219 219 218 218 219 219 219 220 220 220 219 219 219 218 218 218 218 217 216 216
265 265 264 263 263 263 261 260 258 255 252 250 247 244 241 239 237 236 235 235 235 234 234 233 232 230 229 228 227 227 226 227 227 227 226 224 223 223 223 222 222 221 220 220 219 219 219 218 216 217 218 220 220 219 219 219 219 219 219 219 219 219 220 219 219 219 219 219 219 219 218 218 217 216
265 265 264 263 263 262 260 258 256 254 251 249 246 243 240 238 236 235 234 234 234 233 233 232 231 230 228 227 226 226 225 226 227 227 226 224 223 223 223 222 222 222 221 220 219 219 219 219 218 217 217 218 220 220 220 219 219 219 219 219 219 219 219 219 219 219 219 219 219 219 219 218 217 217
264 264 263 263 262 261 259 257 254 252 250 247 245 242 239 237 235 234 233 233 233 232 231 231 230 229 227 226 225 224 224 225 226 226 226 224 222 222 223 223 223 222 222 220 220 220 220 219 218 217 217 217 218 219 220 220 220 219 219 220 220 219 219 219 219 219 219 219 219 219 219 219 218 217
263 263 262 262 261 260 258 255 252 250 248 246 243 241 239 236 235 233 232 232 232 232 231 230 229 228 226 225 224 223 223 224 225 225 225 224 222 221 222 223 223 223 223 222 221 220 220 220 219 218 218 218 217 218 219 220 220 220 220 220 220 220 219 219 219 218 219 219 219 219 219 219 219 218
262 262 261 261 260 259 256 253 250 248 247 244 242 240 238 236 234 233 232 232 232 231 230 229 228 227 225 224 223 222 222 223 225 225 225 224 222 221 221 222 223 223 223 223 222 221 221 220 220 219 219 218 218 218 218 219 220 221 221 220 220 220 220 219 219 219 219 219 220 219 219 219 219 219
261 261 261 260 259 257 254 251 248 246 245 243 241 239 238 235 234 232 231 231 231 231 230 229 228 227 225 223 222 221 221 223 224 224 224 223 222 221 220 220 222 223 223 223 222 221 221 221 221 220 220 219 219 219 218 218 219 221 222 221 220 220 220 219 219 219 219 219 220 220 220 219 219 219
260 260 260 258 257 255 252 249 246 244 243 242 240 238 237 235 233 232 231 231 230 230 229 228 227 226 224 223 222 221 220 222 223 224 224 223 222 221 219 219 220 222 223 224 223 222 222 222 221 221 221 220 220 220 220 219 218 220 222 222 221 220 220 220 219 219 219 219 219 220 220 220 220 220
259 259 258 257 255 253 251 247 244 243 242 241 238 237 236 235 232 231 230 230 230 229 228 228 227 225 223 222 221 220 219 220 222 223 223 223 222 221 220 219 219 221 222 223 224 224 223 223 223 222 222 221 221 221 221 220 219 219 220 222 222 220 219 219 219 219 219 219 219 220 220 220 220 220
258 257 256 255 253 252 249 244 241 241 241 240 237 236 235 234 231 230 230 230 229 229 228 227 226 224 222 221 220 219 218 219 220 222 223 223 222 221 221 220 219 220 222 222 223 223 224 224 224 223 223 222 222 222 221 221 220 219 219 221 222 221 220 219 219 219 219 219 219 219 220 220 220 220
257 256 255 254 252 250 246 242 239 239 239 238 236 235 234 232 230 230 229 229 229 228 227 226 226 224 222 220 219 219 218 218 219 221 222 223 222 221 221 220 220 220 221 221 222 222 223 223 223 223 223 222 222 223 222 221 221 221 220 220 222 222 221 220 219 220 220 219 219 219 220 220 220 220
255 254 253 252 250 248 244 239 237 237 238 237 236 233 232 231 230 229 229 228 228 227 226 225 225 223 221 219 219 219 219 218 219 220 222 223 222 221 220 221 221 220 220 221 221 222 222 223 223 223 223 223 223 223 223 222 222 222 221 221 221 223 223 221 220 220 220 220 219 219 220 220 220 221
254 252 251 250 248 245 241 237 235 235 235 235 234 232 230 230 229 229 228 228 228 226 225 224 224 223 221 219 218 218 219 219 218 220 221 222 222 221 220 221 222 221 220 220 221 222 222 223 223 223 223 224 224 223 223 223 223 222 222 222 221 222 223 223 221 220 220 221 220 219 220 221 221 221
252 251 249 248 246 243 238 234 233 233 234 234 232 229 228 228 228 227 227 228 227 226 224 224 224 223 221 220 219 218 219 219 219 220 221 222 221 220 220 222 222 221 220 220 221 222 223 223 223 224 224 224 224 224 223 223 223 223 223 222 222 221 221 222 222 221 220 221 221 220 220 221 222 221
249 249 248 246 244 240 236 233 232 233 233 234 232 229 227 227 227 227 227 227 226 225 224 223 223 223 222 220 219 219 219 219 219 220 221 221 221 220 221 222 223 222 221 221 221 221 222 223 223 223 224 224 224 224 224 224 224 224 223 223 222 221 220 221 222 222 221 220 221 221 221 221 222 222
248 249 248 245 241 237 233 231 231 232 233 233 231 228 227 227 227 226 226 226 225 224 223 223 223 223 222 220 219 219 219 219 219 220 221 221 221 220 221 223 223 223 222 222 221 221 222 222 223 223 223 224 224 224 224 224 224 224 224 223 222 222 221 220 220 222 222 221 221 221 222 221 221 222
248 247 246 242 237 233 229 229 230 230 231 231 229 226 225 226 226 226 226 225 224 222 222 222 223 222 221 220 220 220 220 219 220 221 222 222 221 221 221 222 223 223 223 223 223 223 222 222 222 223 223 224 224 224 224 224 224 224 224 224 223 222 222 221 220 221 222 222 221 221 222 222 222 222
246 243 241 237 232 229 227 228 229 230 230 230 228 225 224 225 225 225 224 223 222 222 222 222 222 222 221 220 220 220 220 219 220 221 222 223 223 222 221 222 223 224 224 224 224 225 224 223 222 222 223 223 224 224 224 224 224 224 224 224 224 223 222 221 221 221 222 223 223 222 222 222 223 222
245 239 236 234 230 227 227 227 228 230 230 229 227 224 223 224 224 223 222 221 221 220 221 222 222 222 221 220 219 219 220 219 220 221 222 223 224 223 222 222 223 224 224 224 225 226 227 226 224 223 222 223 223 224 225 225 224 224 225 224 224 224 223 222 222 221 221 222 223 223 222 222 223 223
243 237 231 230 229 227 226 227 228 229 230 229 226 223 222 223 223 222 221 220 219 219 220 221 221 221 220 219 219 219 219 219 219 220 222 223 224 224 224 223 224 224 224 224 225 227 228 228 227 226 224 223 223 223 224 225 226 225 225 226 225 225 225 224 223 222 222 222 223 223 223 223 223 223
242 236 230 229 229 228 227 227 228 229 229 228 225 222 222 223 223 221 220 219 218 218 219 220 220 220 219 218 218 218 218 219 219 220 221 223 224 225 225 225 225 225 225 225 225 227 228 229 228 228 227 226 225 224 224 225 226 227 227 227 227 227 226 226 225 224 223 222 222 223 224 224 223 223
240 236 230 229 230 229 228 228 228 228 229 228 224 222 222 223 222 221 219 218 218 218 218 219 219 219 218 217 216 217 218 218 219 220 221 223 224 225 225 226 226 226 226 226 226 227 228 229 229 229 229 228 227 226 225 225 225 226 227 228 228 228 228 227 227 226 226 224 223 223 224 225 225 224
238 234 230 229 230 229 228 227 227 228 228 226 223 221 222 223 222 220 218 217 217 217 218 218 218 217 216 215 215 215 216 217 218 219 221 223 224 225 226 227 228 228 228 228 227 227 228 229 230 230 229 229 229 228 228 227 225 225 226 226 227 228 229 229 228 228 227 227 226 225 224 224 225 225
237 234 231 229 229 228 227 227 227 227 227 224 222 221 221 221 220 217 215 214 215 216 216 217 216 216 215 214 214 214 215 216 217 218 220 222 223 225 226 227 228 230 230 230 230 229 229 229 230 230 230 229 229 229 229 229 227 226 226 226 227 228 229 230 230 230 229 229 228 227 226 225 225 226
236 234 231 229 228 227 226 226 226 226 225 223 221 220 220 218 217 215 213 212 213 214 214 215 215 214 213 212 212 212 213 215 216 217 219 221 223 225 226 228 229 230 232 232 232 231 230 230 230 230 230 229 229 229 230 230 229 228 227 227 227 228 229 229 230 231 231 231 230 229 228 227 226 226
234 232 229 228 227 226 225 225 225 224 223 221 220 219 218 217 215 214 212 211 211 212 212 213 212 212 211 211 211 211 212 213 215 216 218 220 222 224 226 228 229 231 232 233 234 234 233 232 230 230 230 230 230 230 230 230 230 230 229 228 228 228 228 228 229 230 231 232 232 231 231 230 229 228
231 229 228 226 226 225 225 224 223 222 222 220 218 217 216 215 214 211 210 210 210 210 210 211 210 210 210 209 210 210 212 213 214 215 217 218 221 223 225 227 229 231 232 234 235 236 236 235 233 232 231 231 230 230 229 229 230 230 230 230 229 229 228 228 229 229 230 231 231 232 232 231 230 230
228 227 226 226 225 224 224 223 221 219 219 218 216 215 215 214 212 210 209 209 208 208 209 209 209 208 208 208 209 210 212 213 214 215 217 219 220 222 224 226 227 229 231 233 234 236 238 238 236 235 233 232 232 231 230 229 229 230 231 231 231 231 230 229 229 229 230 231 232 232 232 232 231 231
227 226 225 224 223 222 222 221 219 216 214 214 214 213 212 211 211 210 209 208 207 207 207 207 207 207 207 208 209 211 212 214 215 216 218 220 221 223 224 226 227 228 229 230 232 234 237 239 239 238 237 235 234 233 231 229 228 229 231 232 233 232 232 232 231 230 230 231 232 233 233 233 232 232
225 224 223 221 220 219 218 218 216 214 212 212 212 210 208 208 208 208 208 207 206 205 205 205 205 206 206 207 208 210 212 214 215 217 218 221 222 224 226 227 228 229 229 230 230 232 234 236 239 240 240 239 238 236 234 232 230 229 230 232 233 234 233 233 233 232 231 231 232 233 234 234 234 233